AAL1893 KDCA-KBOS

Flight info

Callsign AAL1893
Flight time 1h 11m
Altitude 31000
Route SOOKI6 SWANN BROSS Q419 JFK ROBUC3
Aircraft B738/M-SDE2E3FGHIRWXY/LB1

Departure

Time 2026-05-04 22:26
Airport Ronald Reagan Washington National Airport (KDCA)

Arrival

Time 2026-05-04 23:38
Airport Boston Logan International Airport (KBOS)
Time Latitude Longitude Altitude Speed Heading
2026-05-04 21:57 38.85440 -77.04234 30 ft 0 kts 163°
2026-05-04 22:17 38.85451 -77.04238 30 ft 2 kts 162°
2026-05-04 22:17 38.85465 -77.04243 30 ft 2 kts 163°
2026-05-04 22:17 38.85475 -77.04247 30 ft 1 kts 163°
2026-05-04 22:18 38.85487 -77.04256 30 ft 2 kts 123°
2026-05-04 22:18 38.85491 -77.04273 30 ft 2 kts 83°
2026-05-04 22:18 38.85489 -77.04282 30 ft 1 kts 66°
2026-05-04 22:18 38.85488 -77.04286 31 ft 0 kts 71°
2026-05-04 22:21 38.85493 -77.04266 30 ft 5 kts 72°
2026-05-04 22:22 38.85507 -77.04211 29 ft 7 kts 72°
2026-05-04 22:22 38.85524 -77.04141 27 ft 8 kts 73°
2026-05-04 22:22 38.85545 -77.04062 25 ft 8 kts 60°
2026-05-04 22:22 38.85594 -77.04035 24 ft 9 kts 355°
2026-05-04 22:23 38.85674 -77.04044 23 ft 12 kts 356°
2026-05-04 22:23 38.85763 -77.04052 22 ft 12 kts 355°
2026-05-04 22:23 38.85851 -77.04062 22 ft 13 kts 355°
2026-05-04 22:23 38.85931 -77.04020 20 ft 12 kts 66°
2026-05-04 22:24 38.85974 -77.03964 19 ft 9 kts 17°
2026-05-04 22:24 38.85995 -77.03956 19 ft 0 kts 15°
2026-05-04 22:24 38.86001 -77.03954 18 ft 5 kts 15°
2026-05-04 22:25 38.86079 -77.03919 18 ft 10 kts 38°
2026-05-04 22:25 38.86062 -77.03870 17 ft 7 kts 176°
2026-05-04 22:25 38.86055 -77.03869 17 ft 0 kts 176°
2026-05-04 22:25 38.85931 -77.03857 19 ft 49 kts 175°
2026-05-04 22:26 38.85354 -77.03799 22 ft 115 kts 175°
2026-05-04 22:26 38.84369 -77.03700 70 ft 163 kts 177°
2026-05-04 22:26 38.83243 -77.03602 739 ft 165 kts 178°
2026-05-04 22:26 38.82126 -77.03416 1524 ft 164 kts 174°
2026-05-04 22:27 38.81039 -77.03116 2070 ft 166 kts 174°
2026-05-04 22:27 38.79847 -77.02838 2411 ft 180 kts 175°
2026-05-04 22:27 38.78571 -77.02569 2762 ft 193 kts 175°
2026-05-04 22:27 38.77180 -77.02198 3032 ft 216 kts 166°
2026-05-04 22:28 38.75840 -77.01110 3355 ft 245 kts 133°
2026-05-04 22:28 38.75115 -76.99086 3766 ft 268 kts 103°
2026-05-04 22:28 38.75005 -76.96642 4202 ft 283 kts 91°
2026-05-04 22:28 38.75209 -76.94097 4763 ft 292 kts 76°
2026-05-04 22:29 38.76069 -76.91771 5463 ft 293 kts 53°
2026-05-04 22:29 38.77453 -76.89862 6113 ft 295 kts 36°
2026-05-04 22:29 38.79126 -76.88418 6838 ft 293 kts 27°
2026-05-04 22:29 38.80888 -76.87115 7593 ft 293 kts 25°
2026-05-04 22:30 38.82664 -76.85822 8370 ft 293 kts 25°
2026-05-04 22:30 38.84400 -76.84528 9159 ft 293 kts 25°
2026-05-04 22:30 38.86129 -76.83178 9923 ft 295 kts 28°
2026-05-04 22:30 38.87800 -76.81547 10509 ft 307 kts 35°
2026-05-04 22:31 38.89436 -76.79692 10885 ft 324 kts 38°
2026-05-04 22:31 38.91137 -76.77670 11277 ft 340 kts 38°
2026-05-04 22:31 38.92889 -76.75581 11666 ft 354 kts 38°
2026-05-04 22:31 38.94740 -76.73398 12076 ft 369 kts 38°
2026-05-04 22:32 38.96659 -76.71153 12666 ft 377 kts 38°
2026-05-04 22:32 38.98591 -76.68902 13358 ft 381 kts 38°
2026-05-04 22:32 39.00575 -76.66595 14090 ft 386 kts 38°
2026-05-04 22:32 39.02539 -76.64256 14874 ft 389 kts 40°
2026-05-04 22:33 39.04475 -76.61830 15595 ft 394 kts 41°
2026-05-04 22:33 39.06420 -76.59325 16384 ft 397 kts 42°
2026-05-04 22:33 39.08368 -76.56788 17084 ft 401 kts 43°
2026-05-04 22:33 39.10130 -76.54024 17759 ft 409 kts 53°
2026-05-04 22:34 39.11502 -76.50790 18473 ft 415 kts 64°
2026-05-04 22:34 39.12418 -76.47280 19163 ft 420 kts 74°
2026-05-04 22:34 39.13025 -76.43582 19846 ft 424 kts 78°
2026-05-04 22:34 39.13490 -76.39809 20488 ft 429 kts 80°
2026-05-04 22:35 39.13891 -76.36032 21157 ft 432 kts 81°
2026-05-04 22:35 39.14278 -76.32192 21740 ft 437 kts 81°
2026-05-04 22:35 39.14666 -76.28325 22372 ft 440 kts 81°
2026-05-04 22:35 39.15065 -76.24425 22975 ft 444 kts 81°
2026-05-04 22:36 39.15478 -76.20492 23602 ft 447 kts 80°
2026-05-04 22:36 39.15911 -76.16512 24111 ft 451 kts 80°
2026-05-04 22:36 39.16358 -76.12506 24680 ft 454 kts 79°
2026-05-04 22:36 39.16817 -76.08454 25259 ft 457 kts 79°
2026-05-04 22:37 39.17274 -76.04427 25879 ft 458 kts 79°
2026-05-04 22:37 39.17735 -76.00374 26364 ft 462 kts 79°
2026-05-04 22:37 39.18249 -75.96273 26867 ft 464 kts 76°
2026-05-04 22:37 39.19026 -75.92299 27523 ft 460 kts 69°
2026-05-04 22:38 39.20250 -75.88530 28268 ft 452 kts 59°
2026-05-04 22:38 39.21896 -75.85127 28960 ft 445 kts 50°
2026-05-04 22:38 39.23904 -75.82156 29590 ft 439 kts 41°
2026-05-04 22:38 39.26116 -75.79541 30161 ft 436 kts 37°
2026-05-04 22:39 39.28457 -75.77068 30761 ft 433 kts 35°
2026-05-04 22:39 39.30833 -75.74657 30923 ft 437 kts 34°
2026-05-04 22:39 39.33213 -75.72247 30919 ft 435 kts 35°
2026-05-04 22:40 39.37889 -75.67394 30924 ft 432 kts 35°
2026-05-04 22:40 39.42528 -75.62425 30922 ft 432 kts 36°
2026-05-04 22:41 39.47098 -75.57436 30922 ft 432 kts 36°
2026-05-04 22:41 39.51673 -75.52403 30924 ft 432 kts 36°
2026-05-04 22:42 39.56234 -75.47368 30922 ft 432 kts 37°
2026-05-04 22:42 39.60791 -75.42326 30918 ft 431 kts 36°
2026-05-04 22:43 39.65354 -75.37268 30916 ft 432 kts 37°
2026-05-04 22:43 39.69903 -75.32216 30916 ft 431 kts 37°
2026-05-04 22:44 39.74445 -75.27162 30915 ft 431 kts 37°
2026-05-04 22:44 39.78975 -75.22045 30914 ft 433 kts 39°
2026-05-04 22:45 39.83143 -75.16357 30913 ft 435 kts 45°
2026-05-04 22:45 39.89037 -75.07433 30916 ft 433 kts 46°
2026-05-04 22:46 39.92951 -75.01491 30914 ft 434 kts 45°
2026-05-04 22:46 39.96870 -74.95521 30910 ft 434 kts 47°
2026-05-04 22:47 40.00411 -74.89115 30910 ft 437 kts 52°
2026-05-04 22:47 40.03715 -74.82511 30914 ft 437 kts 53°
2026-05-04 22:48 40.07022 -74.75845 30920 ft 438 kts 53°
2026-05-04 22:48 40.10338 -74.69213 30921 ft 440 kts 52°
2026-05-04 22:49 40.13699 -74.62532 30916 ft 439 kts 52°
2026-05-04 22:49 40.17032 -74.55922 30919 ft 437 kts 52°
2026-05-04 22:50 40.20622 -74.49529 30918 ft 433 kts 43°
2026-05-04 22:50 40.24932 -74.44192 30915 ft 429 kts 35°
2026-05-04 22:51 40.29555 -74.39300 30918 ft 428 kts 33°
2026-05-04 22:51 40.34244 -74.34432 30913 ft 429 kts 34°
2026-05-04 22:52 40.38894 -74.29539 30912 ft 430 kts 34°
2026-05-04 22:52 40.43497 -74.24632 30743 ft 424 kts 34°
2026-05-04 22:53 40.45757 -74.22205 30067 ft 424 kts 34°
2026-05-04 22:53 40.48048 -74.19746 29074 ft 431 kts 34°
2026-05-04 22:53 40.50391 -74.17230 28145 ft 443 kts 36°
2026-05-04 22:53 40.52668 -74.14459 27833 ft 445 kts 42°
2026-05-04 22:54 40.54612 -74.11352 27457 ft 447 kts 51°
2026-05-04 22:54 40.56176 -74.07800 26943 ft 448 kts 62°
2026-05-04 22:54 40.57307 -74.04017 26910 ft 454 kts 67°
2026-05-04 22:54 40.58304 -74.00006 26907 ft 461 kts 69°
2026-05-04 22:55 40.59214 -73.96003 26906 ft 463 kts 70°
2026-05-04 22:55 40.60104 -73.91948 26903 ft 462 kts 70°
2026-05-04 22:55 40.60992 -73.87869 26912 ft 461 kts 70°
2026-05-04 22:55 40.61866 -73.83865 26915 ft 461 kts 70°
2026-05-04 22:56 40.62841 -73.79806 26912 ft 461 kts 66°
2026-05-04 22:56 40.64196 -73.76047 26914 ft 454 kts 54°
2026-05-04 22:56 40.66004 -73.72716 26918 ft 448 kts 46°
2026-05-04 22:56 40.68006 -73.69607 26917 ft 446 kts 43°
2026-05-04 22:57 40.70112 -73.66571 26915 ft 446 kts 42°
2026-05-04 22:57 40.72224 -73.63612 26912 ft 446 kts 42°
2026-05-04 22:57 40.74348 -73.60647 26915 ft 446 kts 42°
2026-05-04 22:57 40.76470 -73.57661 26916 ft 447 kts 42°
2026-05-04 22:58 40.78576 -73.54665 26920 ft 447 kts 42°
2026-05-04 22:58 40.80684 -73.51630 26921 ft 445 kts 43°
2026-05-04 22:58 40.82756 -73.48622 26921 ft 446 kts 43°
2026-05-04 22:58 40.84849 -73.45565 26922 ft 446 kts 43°
2026-05-04 22:59 40.86908 -73.42544 26918 ft 446 kts 43°
2026-05-04 22:59 40.88988 -73.39481 26917 ft 445 kts 43°
2026-05-04 22:59 40.91044 -73.36450 26917 ft 447 kts 43°
2026-05-04 22:59 40.93095 -73.33421 26916 ft 446 kts 44°
2026-05-04 23:00 40.95172 -73.30344 26692 ft 441 kts 44°
2026-05-04 23:00 40.97213 -73.27318 25878 ft 446 kts 44°
2026-05-04 23:00 40.99301 -73.24230 25236 ft 455 kts 44°
2026-05-04 23:00 41.01377 -73.21156 25048 ft 451 kts 44°
2026-05-04 23:01 41.03446 -73.18079 24802 ft 448 kts 44°
2026-05-04 23:01 41.05512 -73.15002 24423 ft 447 kts 44°
2026-05-04 23:01 41.07577 -73.11925 24089 ft 444 kts 44°
2026-05-04 23:01 41.09607 -73.08894 23757 ft 442 kts 44°
2026-05-04 23:02 41.11662 -73.05826 23395 ft 441 kts 44°
2026-05-04 23:02 41.13675 -73.02817 23080 ft 439 kts 44°
2026-05-04 23:02 41.15689 -72.99805 22918 ft 437 kts 44°
2026-05-04 23:02 41.17702 -72.96792 22907 ft 438 kts 44°
2026-05-04 23:03 41.19693 -72.93671 22908 ft 441 kts 47°
2026-05-04 23:03 41.21479 -72.90385 22911 ft 443 kts 53°
2026-05-04 23:03 41.23062 -72.86910 22911 ft 446 kts 57°
2026-05-04 23:03 41.24532 -72.83292 22910 ft 448 kts 58°
2026-05-04 23:04 41.25952 -72.79584 22911 ft 447 kts 59°
2026-05-04 23:04 41.27327 -72.75902 22912 ft 448 kts 60°
2026-05-04 23:04 41.28696 -72.72213 22908 ft 447 kts 60°
2026-05-04 23:04 41.30042 -72.68581 22904 ft 430 kts 60°
2026-05-04 23:05 41.31328 -72.65107 22913 ft 412 kts 59°
2026-05-04 23:05 41.32568 -72.61769 22915 ft 398 kts 59°
2026-05-04 23:05 41.33805 -72.58463 22912 ft 398 kts 59°
2026-05-04 23:05 41.35046 -72.55173 22913 ft 401 kts 59°
2026-05-04 23:06 41.36293 -72.51842 22907 ft 401 kts 60°
2026-05-04 23:06 41.37480 -72.48506 22913 ft 399 kts 60°
2026-05-04 23:06 41.38694 -72.45219 22917 ft 401 kts 59°
2026-05-04 23:06 41.39967 -72.41884 22909 ft 401 kts 59°
2026-05-04 23:07 41.41239 -72.38581 22905 ft 400 kts 58°
2026-05-04 23:07 41.42492 -72.35318 22907 ft 399 kts 58°
2026-05-04 23:07 41.43757 -72.32009 22913 ft 401 kts 59°
2026-05-04 23:07 41.45014 -72.28706 22912 ft 400 kts 59°
2026-05-04 23:08 41.46259 -72.25416 22912 ft 400 kts 60°
2026-05-04 23:08 41.47509 -72.22100 22913 ft 401 kts 59°
2026-05-04 23:08 41.48749 -72.18790 22905 ft 399 kts 60°
2026-05-04 23:08 41.49968 -72.15488 22896 ft 400 kts 60°
2026-05-04 23:09 41.51187 -72.12161 22903 ft 402 kts 60°
2026-05-04 23:09 41.52415 -72.08794 22900 ft 402 kts 60°
2026-05-04 23:09 41.53628 -72.05458 22902 ft 400 kts 60°
2026-05-04 23:09 41.54834 -72.02138 22904 ft 401 kts 60°
2026-05-04 23:10 41.56037 -71.98797 22902 ft 401 kts 62°
2026-05-04 23:10 41.57150 -71.95395 22906 ft 401 kts 64°
2026-05-04 23:10 41.58185 -71.91952 22910 ft 402 kts 65°
2026-05-04 23:10 41.59199 -71.88467 22902 ft 401 kts 65°
2026-05-04 23:11 41.60196 -71.85004 22902 ft 403 kts 65°
2026-05-04 23:11 41.61198 -71.81520 22735 ft 398 kts 65°
2026-05-04 23:11 41.62177 -71.78127 22069 ft 397 kts 65°
2026-05-04 23:11 41.63168 -71.74712 21463 ft 395 kts 65°
2026-05-04 23:12 41.64165 -71.71290 20864 ft 394 kts 65°
2026-05-04 23:12 41.65152 -71.67915 20290 ft 392 kts 65°
2026-05-04 23:12 41.66138 -71.64545 19824 ft 388 kts 65°
2026-05-04 23:12 41.67107 -71.61234 19123 ft 386 kts 66°
2026-05-04 23:13 41.68071 -71.57935 18857 ft 371 kts 65°
2026-05-04 23:13 41.68994 -71.54771 18411 ft 368 kts 65°
2026-05-04 23:13 41.69919 -71.51608 17915 ft 367 kts 65°
2026-05-04 23:13 41.70840 -71.48456 17543 ft 362 kts 66°
2026-05-04 23:14 41.71750 -71.45347 17130 ft 359 kts 65°
2026-05-04 23:14 41.72730 -71.42299 16674 ft 356 kts 61°
2026-05-04 23:14 41.73862 -71.39387 16215 ft 353 kts 57°
2026-05-04 23:14 41.75084 -71.36546 15763 ft 351 kts 56°
2026-05-04 23:15 41.76324 -71.33754 15305 ft 350 kts 57°
2026-05-04 23:15 41.77559 -71.30965 14843 ft 348 kts 57°
2026-05-04 23:15 41.78765 -71.28209 14402 ft 346 kts 57°
2026-05-04 23:15 41.79967 -71.25423 13948 ft 345 kts 58°
2026-05-04 23:16 41.81160 -71.22635 13499 ft 343 kts 58°
2026-05-04 23:16 41.82325 -71.19898 13041 ft 341 kts 58°
2026-05-04 23:16 41.83500 -71.17130 12578 ft 339 kts 58°
2026-05-04 23:16 41.84650 -71.14417 12167 ft 332 kts 57°
2026-05-04 23:17 41.85768 -71.11776 12083 ft 318 kts 57°
2026-05-04 23:17 41.86862 -71.09223 12074 ft 317 kts 57°
2026-05-04 23:17 41.87953 -71.06709 12076 ft 314 kts 57°
2026-05-04 23:17 41.89057 -71.04167 12073 ft 316 kts 57°
2026-05-04 23:18 41.90170 -71.01601 12067 ft 316 kts 57°
2026-05-04 23:18 41.91257 -70.99087 12074 ft 316 kts 57°
2026-05-04 23:18 41.92372 -70.96500 12065 ft 316 kts 57°
2026-05-04 23:18 41.93459 -70.93977 12084 ft 315 kts 57°
2026-05-04 23:19 41.94557 -70.91425 12060 ft 315 kts 57°
2026-05-04 23:19 41.95638 -70.88908 11799 ft 311 kts 57°
2026-05-04 23:19 41.96711 -70.86404 11416 ft 309 kts 57°
2026-05-04 23:19 41.97776 -70.83921 11027 ft 307 kts 57°
2026-05-04 23:20 41.98841 -70.81439 10639 ft 306 kts 57°
2026-05-04 23:20 41.99903 -70.78959 10238 ft 305 kts 57°
2026-05-04 23:20 42.00977 -70.76550 10043 ft 295 kts 52°
2026-05-04 23:20 42.02182 -70.74427 9987 ft 280 kts 45°
2026-05-04 23:21 42.03487 -70.72475 9939 ft 291 kts 43°
2026-05-04 23:21 42.04900 -70.70453 9649 ft 297 kts 43°
2026-05-04 23:21 42.06287 -70.68439 9268 ft 296 kts 43°
2026-05-04 23:21 42.07679 -70.66378 8891 ft 295 kts 44°
2026-05-04 23:22 42.09048 -70.64329 8521 ft 294 kts 44°
2026-05-04 23:22 42.10457 -70.62393 8152 ft 289 kts 36°
2026-05-04 23:22 42.12111 -70.61061 8063 ft 270 kts 13°
2026-05-04 23:22 42.13914 -70.60493 8072 ft 266 kts
2026-05-04 23:23 42.15746 -70.60113 8064 ft 265 kts
2026-05-04 23:23 42.17545 -70.59712 7809 ft 262 kts
2026-05-04 23:23 42.19328 -70.59257 7496 ft 261 kts
2026-05-04 23:23 42.21119 -70.58766 7139 ft 260 kts
2026-05-04 23:24 42.22878 -70.58272 6831 ft 260 kts
2026-05-04 23:24 42.24642 -70.57774 6494 ft 259 kts
2026-05-04 23:24 42.26425 -70.57273 6155 ft 264 kts
2026-05-04 23:24 42.28255 -70.56767 5800 ft 273 kts
2026-05-04 23:25 42.30098 -70.56261 5485 ft 272 kts
2026-05-04 23:25 42.31956 -70.56065 5127 ft 264 kts 348°
2026-05-04 23:25 42.33605 -70.56850 5052 ft 244 kts 319°
2026-05-04 23:25 42.34830 -70.58380 5050 ft 241 kts 309°
2026-05-04 23:26 42.35991 -70.59994 5036 ft 240 kts 310°
2026-05-04 23:26 42.37189 -70.61591 5039 ft 242 kts 311°
2026-05-04 23:26 42.38403 -70.63179 5023 ft 243 kts 311°
2026-05-04 23:26 42.39621 -70.64768 5042 ft 242 kts 311°
2026-05-04 23:27 42.40814 -70.66335 5053 ft 241 kts 311°
2026-05-04 23:27 42.42035 -70.67941 5023 ft 241 kts 311°
2026-05-04 23:27 42.43226 -70.69509 5015 ft 243 kts 311°
2026-05-04 23:27 42.44442 -70.71111 5030 ft 244 kts 311°
2026-05-04 23:28 42.45654 -70.72707 5027 ft 243 kts 310°
2026-05-04 23:28 42.46865 -70.74305 5023 ft 242 kts 310°
2026-05-04 23:28 42.48069 -70.75894 5010 ft 239 kts 311°
2026-05-04 23:28 42.49244 -70.77440 4926 ft 229 kts 310°
2026-05-04 23:29 42.50357 -70.78908 4824 ft 219 kts 310°
2026-05-04 23:29 42.51430 -70.80298 4697 ft 212 kts 313°
2026-05-04 23:29 42.52689 -70.81367 4381 ft 224 kts 336°
2026-05-04 23:29 42.54282 -70.81406 4121 ft 236 kts
2026-05-04 23:30 42.55825 -70.80667 3845 ft 238 kts 16°
2026-05-04 23:30 42.57373 -70.79845 3503 ft 237 kts 10°
2026-05-04 23:30 42.58935 -70.79707 3360 ft 213 kts 338°
2026-05-04 23:30 42.60104 -70.80605 3271 ft 182 kts 303°
2026-05-04 23:31 42.60675 -70.82057 3029 ft 172 kts 279°
2026-05-04 23:31 42.60593 -70.83625 3022 ft 171 kts 245°
2026-05-04 23:31 42.59934 -70.84988 3017 ft 172 kts 235°
2026-05-04 23:31 42.59220 -70.86279 3019 ft 173 kts 236°
2026-05-04 23:32 42.58501 -70.87608 3019 ft 174 kts 236°
2026-05-04 23:32 42.57794 -70.88904 3019 ft 172 kts 234°
2026-05-04 23:32 42.56957 -70.90118 3022 ft 177 kts 223°
2026-05-04 23:32 42.55904 -70.90988 3020 ft 180 kts 210°
2026-05-04 23:33 42.54749 -70.91646 3016 ft 183 kts 207°
2026-05-04 23:33 42.53562 -70.92245 3011 ft 182 kts 206°
2026-05-04 23:33 42.52372 -70.92831 3013 ft 182 kts 206°
2026-05-04 23:33 42.51185 -70.93406 2858 ft 179 kts 206°
2026-05-04 23:34 42.50029 -70.93965 2623 ft 175 kts 206°
2026-05-04 23:34 42.48900 -70.94510 2387 ft 166 kts 206°
2026-05-04 23:34 42.47847 -70.95017 2196 ft 152 kts 206°
2026-05-04 23:34 42.46846 -70.95510 1980 ft 155 kts 207°
2026-05-04 23:35 42.45858 -70.95987 1763 ft 148 kts 205°
2026-05-04 23:35 42.44906 -70.96445 1572 ft 139 kts 206°
2026-05-04 23:35 42.44001 -70.96888 1395 ft 138 kts 206°
2026-05-04 23:35 42.43101 -70.97324 1209 ft 138 kts 205°
2026-05-04 23:36 42.42182 -70.97767 1062 ft 138 kts 204°
2026-05-04 23:36 42.41283 -70.98199 843 ft 136 kts 203°
2026-05-04 23:36 42.40408 -70.98618 674 ft 128 kts 204°
2026-05-04 23:36 42.39555 -70.99038 493 ft 131 kts 202°
2026-05-04 23:37 42.38681 -70.99451 321 ft 135 kts 201°
2026-05-04 23:37 42.37810 -70.99869 130 ft 132 kts 201°
2026-05-04 23:37 42.36967 -71.00282 13 ft 117 kts 199°
2026-05-04 23:37 42.36421 -71.00543 16 ft 65 kts 199°
2026-05-04 23:38 42.36064 -71.00725 16 ft 37 kts 208°
2026-05-04 23:38 42.35902 -71.00936 19 ft 30 kts 231°
2026-05-04 23:38 42.35834 -71.01073 19 ft 12 kts 259°
2026-05-04 23:38 42.35838 -71.01181 19 ft 10 kts 277°
2026-05-04 23:39 42.35848 -71.01285 21 ft 11 kts 277°
2026-05-04 23:39 42.35858 -71.01379 22 ft 10 kts 278°
2026-05-04 23:39 42.35873 -71.01494 22 ft 12 kts 280°
2026-05-04 23:39 42.35889 -71.01609 20 ft 15 kts 279°
2026-05-04 23:40 42.35914 -71.01775 19 ft 18 kts 283°
2026-05-04 23:40 42.35963 -71.01920 19 ft 16 kts 300°
2026-05-04 23:40 42.36019 -71.02050 18 ft 15 kts 300°
2026-05-04 23:40 42.36058 -71.02113 17 ft 6 kts 360°
2026-05-04 23:41 42.36101 -71.02077 17 ft 6 kts 10°
2026-05-04 23:41 42.36122 -71.02080 17 ft 1 kts 346°
2026-05-04 23:41 42.36124 -71.02080 17 ft 0 kts 346°